Location: Brockett
(40.8000°S, 175.4500°E)
Time: 13:45:18
(UTC+00:00)

ARIANE 6 FM1 Upper Stage - Visible Passes

Search period start: 13 October 2024 00:00
Search period end: 23 October 2024 00:00
Orbit: 563 x 595 km, 62.0° (Epoch: 12 October)

Date Brightness Start Highest point End Pass type
(mag) Time Alt. Az. Time Alt. Az. Time Alt. Az.
13 Oct 5.1 14:15:21 20° S 14:15:21 20° S 14:17:00 10° SSE visible
14 Oct 5.2 14:19:19 18° S 14:19:19 18° S 14:21:00 10° SSE visible
15 Oct 5.3 14:23:15 15° SSW 14:23:15 15° SSW 14:24:49 10° S visible
16 Oct 5.5 14:27:07 12° SSW 14:27:07 12° SSW 14:28:18 10° S visible
17 Oct 5.9 12:54:40 11° SSE 12:54:40 11° SSE 12:54:57 10° SSE visible
18 Oct 5.9 12:58:26 13° SSE 12:58:26 13° SSE 12:58:56 10° SSE visible
19 Oct 5.8 13:02:08 13° S 13:02:08 13° S 13:02:47 10° S visible
20 Oct 5.8 13:05:46 12° S 13:05:46 12° S 13:06:26 10° S visible
21 Oct 5.9 13:09:19 10° SSW 13:09:19 10° SSW 13:09:21 10° SSW visible
22 Oct 6.0 11:36:33 10° SSE 11:36:33 10° SSE 11:36:36 10° SSE visible
